FW4761 Weather Reports


Display with metric or nautical units.
time (UTC)temp
F
wind
direction
speed
MPH
gust
MPH
rain 1hr
in
rain 24hr
in
rain mn
in
humidity
%
barometer
mb
20260510063403 70 103 3.0 12.0 0.00 0.00 0.00 81 974.7
20260510062901 71 128 5.0 12.0 0.00 0.00 0.00 81 974.7
20260510062401 71 82 5.0 12.0 0.00 0.00 0.00 81 974.7
20260510061901 71 119 5.0 12.0 0.00 0.00 0.00 80 974.6
20260510061359 71 109 4.0 12.0 0.00 0.00 0.00 80 974.7
20260510060902 71 67 6.0 13.0 0.00 0.00 0.00 79 974.8
20260510060359 72 82 8.0 17.0 0.00 0.00 0.00 78 974.9
20260510055900 72 96 7.0 17.0 0.00 0.00 0.00 77 975.1
20260510054857 73 95 5.0 15.0 0.00 0.00 0.00 76 975.2
20260510054357 73 83 5.0 13.0 0.00 0.00 0.00 75 975.4
20260510053855 74 105 6.0 15.0 0.00 0.00 0.00 74 975.3
20260510052356 75 58 8.0 17.0 0.00 0.00 0.00 72 976.0
20260510051855 76 93 8.0 17.0 0.00 0.00 0.00 70 976.0
20260510051354 76 92 8.0 17.0 0.00 0.00 0.00 69 976.7
20260510050848 77 63 8.0 27.0 0.00 0.00 0.00 69 977.6
20260510050341 77 46 10.0 27.0 0.00 0.00 0.00 68 977.9
20260510045329 75 67 16.0 33.0 0.00 0.00 0.00 71 976.8
20260510044823 74 340 14.0 33.0 0.00 0.00 0.00 73 976.6
20260510044317 74 40 9.0 23.0 0.00 0.00 0.00 74 976.8
20260510043812 73 339 4.0 11.0 0.00 0.00 0.00 74 975.2
20260510043306 73 121 5.0 12.0 0.00 0.00 0.00 73 973.6
20260510042254 74 146 6.0 12.0 0.00 0.00 0.00 73 973.1
20260510041748 74 136 4.0 9.0 0.00 0.00 0.00 73 973.2
20260510041241 74 150 5.0 11.0 0.00 0.00 0.00 73 973.4
20260510040230 74 128 6.0 13.0 0.00 0.00 0.00 72 972.9
20260510035217 74 144 7.0 12.0 0.00 0.00 0.00 71 972.9
20260510034206 74 141 8.0 14.0 0.00 0.00 0.00 71 973.1
20260510033700 74 145 8.0 13.0 0.00 0.00 0.00 71 973.1
20260510032648 75 132 7.0 11.0 0.00 0.00 0.00 71 973.3
20260510032142 75 123 7.0 12.0 0.00 0.00 0.00 71 973.3
20260510031635 75 133 7.0 12.0 0.00 0.00 0.00 71 973.2
20260510031133 75 138 7.0 12.0 0.00 0.00 0.00 71 973.2
20260510030634 75 150 7.0 12.0 0.00 0.00 0.00 72 973.2
20260510030134 75 134 7.0 13.0 0.00 0.00 0.00 72 973.3
20260510025633 75 135 8.0 13.0 0.00 0.00 0.00 71 973.4
20260510025134 76 141 8.0 13.0 0.00 0.00 0.00 71 973.4
20260510024134 76 135 7.0 13.0 0.00 0.00 0.00 71 973.2
20260510023634 76 150 6.0 11.0 0.00 0.00 0.00 71 973.4
20260510023134 76 136 6.0 13.0 0.00 0.00 0.00 71 973.2
20260510022634 76 129 6.0 13.0 0.00 0.00 0.00 71 973.2
20260510022134 77 142 6.0 11.0 0.00 0.00 0.00 70 973.1
20260510021634 77 0 7.0 11.0 0.00 0.00 0.00 69 973.0
20260510021134 77 161 6.0 11.0 0.00 0.00 0.00 69 973.1
20260510020634 78 132 5.0 11.0 0.00 0.00 0.00 68 973.0
20260510020134 78 145 6.0 11.0 0.00 0.00 0.00 68 972.9
20260510015634 78 117 6.0 11.0 0.00 0.00 0.00 67 972.9
20260510015134 78 148 5.0 10.0 0.00 0.00 0.00 67 972.9
20260510014628 79 136 5.0 13.0 0.00 0.00 0.00 67 972.9
20260510014121 79 142 5.0 13.0 0.00 0.00 0.00 66 972.9
20260510013616 79 153 5.0 12.0 0.00 0.00 0.00 66 972.9
20260510012604 80 153 5.0 10.0 0.00 0.00 0.00 65 973.0
20260510012058 80 149 4.0 10.0 0.00 0.00 0.00 63 972.9
20260510011046 81 157 2.0 5.0 0.00 0.00 0.00 59 972.9
20260510010539 81 140 3.0 7.0 0.00 0.00 0.00 58 972.8
20260510010034 82 136 3.0 7.0 0.00 0.00 0.00 56 972.7
20260510005531 82 140 2.0 5.0 0.00 0.00 0.00 54 972.7
20260510005032 83 136 2.0 5.0 0.00 0.00 0.00 53 972.6
20260510004029 83 127 4.0 8.0 0.00 0.00 0.00 51 972.5
20260510003027 84 152 5.0 9.0 0.00 0.00 0.00 49 972.5
20260510002528 84 145 6.0 10.0 0.00 0.00 0.00 49 972.4
20260510002027 85 152 6.0 10.0 0.00 0.00 0.00 48 972.4
20260510000526 85 149 5.0 11.0 0.00 0.00 0.00 47 972.3
20260509235026 86 141 7.0 11.0 0.00 0.00 0.00 46 972.4
20260509234522 87 149 6.0 12.0 0.00 0.00 0.00 46 972.4
20260509234022 87 136 5.0 12.0 0.00 0.00 0.00 46 972.5
20260509233521 87 143 5.0 11.0 0.00 0.00 0.00 46 972.5
20260509233022 87 163 5.0 11.0 0.00 0.00 0.00 46 972.5
20260509232522 87 161 4.0 11.0 0.00 0.00 0.00 45 972.5
20260509232021 88 152 4.0 11.0 0.00 0.00 0.00 45 972.5
20260509231522 88 133 5.0 11.0 0.00 0.00 0.00 45 972.5
20260509231021 88 120 5.0 11.0 0.00 0.00 0.00 45 972.4
20260509230521 88 147 4.0 12.0 0.00 0.00 0.00 45 972.5
20260509230021 88 138 5.0 12.0 0.00 0.00 0.00 45 972.6
20260509225522 88 120 6.0 12.0 0.00 0.00 0.00 46 972.6
20260509225021 88 150 5.0 12.0 0.00 0.00 0.00 45 972.7
20260509224021 88 174 5.0 10.0 0.00 0.00 0.00 42 972.6
20260509223522 89 163 4.0 8.0 0.00 0.00 0.00 43 972.6
20260509223026 89 160 4.0 10.0 0.00 0.00 0.00 42 972.6
20260509222525 89 153 5.0 10.0 0.00 0.00 0.00 42 972.6
20260509222022 89 147 3.0 10.0 0.00 0.00 0.00 42 972.6
20260509221517 89 90 4.0 10.0 0.00 0.00 0.00 42 972.5
20260509221012 89 98 4.0 10.0 0.00 0.00 0.00 43 972.7
20260509220512 88 123 3.0 9.0 0.00 0.00 0.00 42 972.7
20260509215511 89 103 4.0 9.0 0.00 0.00 0.00 42 972.7
20260509215011 89 134 3.0 9.0 0.00 0.00 0.00 42 972.7
20260509214009 89 115 2.0 9.0 0.00 0.00 0.00 44 972.8
20260509213508 88 87 2.0 8.0 0.00 0.00 0.00 42 972.8
20260509212508 89 149 3.0 7.0 0.00 0.00 0.00 40 973.0
20260509211508 88 150 3.0 8.0 0.00 0.00 0.00 39 973.1
20260509210505 88 117 2.0 8.0 0.00 0.00 0.00 39 973.2
20260509210005 88 355 3.0 8.0 0.00 0.00 0.00 40 973.4
20260509205505 89 108 4.0 9.0 0.00 0.00 0.00 40 973.4
20260509204458 88 165 3.0 7.0 0.00 0.00 0.00 41 973.6
20260509203951 88 119 3.0 9.0 0.00 0.00 0.00 41 973.7
20260509203444 87 128 4.0 10.0 0.00 0.00 0.00 42 973.7
20260509202938 88 94 2.0 10.0 0.00 0.00 0.00 43 973.8
20260509202433 88 96 2.0 6.0 0.00 0.00 0.00 43 973.8
20260509201927 87 93 3.0 7.0 0.00 0.00 0.00 41 973.9
20260509200914 88 167 3.0 10.0 0.00 0.00 0.00 42 974.0
20260509200408 88 136 4.0 10.0 0.00 0.00 0.00 45 974.1
20260509195356 87 71 3.0 9.0 0.00 0.00 0.00 44 974.1
20260509194345 87 84 2.0 10.0 0.00 0.00 0.00 46 974.3
20260509193839 88 78 2.0 10.0 0.00 0.00 0.00 43 974.3
20260509193333 87 101 3.0 10.0 0.00 0.00 0.00 46 974.3
20260509192320 87 128 4.0 8.0 0.00 0.00 0.00 46 974.4
20260509191815 86 49 5.0 10.0 0.00 0.00 0.00 47 974.4
20260509191309 86 49 4.0 10.0 0.00 0.00 0.00 46 974.6
20260509190803 86 33 3.0 10.0 0.00 0.00 0.00 49 974.5
20260509190257 86 55 4.0 10.0 0.00 0.00 0.00 48 974.5
20260509185751 87 37 4.0 9.0 0.00 0.00 0.00 46 974.6
20260509184232 86 84 5.0 9.0 0.00 0.00 0.00 50 974.8
20260509183727 85 46 5.0 10.0 0.00 0.00 0.00 52 974.8
20260509183221 85 105 3.0 10.0 0.00 0.00 0.00 53 974.8
20260509182714 85 103 2.0 9.0 0.00 0.00 0.00 55 974.9
20260509181703 85 355 4.0 10.0 0.00 0.00 0.00 51 974.9
20260509181156 85 92 3.0 10.0 0.00 0.00 0.00 55 975.0
20260509180650 84 346 2.0 9.0 0.00 0.00 0.00 57 975.0
20260509180145 84 112 3.0 10.0 0.00 0.00 0.00 55 975.0
20260509175639 84 76 5.0 10.0 0.00 0.00 0.00 55 975.1
20260509175133 83 69 4.0 10.0 0.00 0.00 0.00 58 975.2
20260509174120 83 355 3.0 8.0 0.00 0.00 0.00 60 975.4
20260509173615 83 34 4.0 8.0 0.00 0.00 0.00 61 975.5
20260509172603 82 25 2.0 9.0 0.00 0.00 0.00 63 975.6
20260509172057 82 331 3.0 9.0 0.00 0.00 0.00 63 975.6
20260509171551 82 78 3.0 10.0 0.00 0.00 0.00 63 975.7
20260509171044 81 35 2.0 10.0 0.00 0.00 0.00 64 975.7
20260509170539 81 350 4.0 9.0 0.00 0.00 0.00 64 975.9
20260509170032 81 346 3.0 9.0 0.00 0.00 0.00 64 975.9
20260509165020 81 26 2.0 8.0 0.00 0.00 0.00 65 975.9
20260509164514 80 336 3.0 6.0 0.00 0.00 0.00 65 976.0
20260509164008 80 312 2.0 8.0 0.00 0.00 0.00 66 976.0
20260509163503 80 349 3.0 8.0 0.00 0.00 0.00 67 976.0
20260509162957 80 325 4.0 8.0 0.00 0.00 0.00 66 976.1
20260509161954 80 349 4.0 8.0 0.00 0.00 0.00 66 976.1
20260509161452 79 285 3.0 8.0 0.00 0.00 0.00 67 976.1
20260509160953 79 355 2.0 8.0 0.00 0.00 0.00 68 976.1
20260509160453 79 355 2.0 7.0 0.00 0.00 0.00 67 976.2
20260509155953 79 309 2.0 7.0 0.00 0.00 0.00 67 976.1
20260509155453 78 355 3.0 6.0 0.00 0.00 0.00 68 976.0
20260509154952 78 346 3.0 7.0 0.00 0.00 0.00 67 976.1
20260509154453 78 349 3.0 7.0 0.00 0.00 0.00 68 976.1
20260509153953 78 293 3.0 7.0 0.00 0.00 0.00 68 976.0
20260509153453 78 272 4.0 9.0 0.00 0.00 0.00 68 975.9
20260509152453 77 282 3.0 7.0 0.00 0.00 0.00 69 976.1
20260509151953 77 284 3.0 8.0 0.00 0.00 0.00 70 976.1
20260509151448 76 294 4.0 8.0 0.00 0.00 0.00 70 976.1
20260509150949 76 279 3.0 7.0 0.00 0.00 0.00 71 976.0
20260509150448 75 312 2.0 6.0 0.00 0.00 0.00 73 975.9
20260509145948 75 290 2.0 5.0 0.00 0.00 0.00 74 975.9
20260509145449 74 288 1.0 4.0 0.00 0.00 0.00 74 975.9
20260509144948 74 287 1.0 7.0 0.00 0.00 0.00 74 975.9
20260509143448 73 286 2.0 6.0 0.00 0.00 0.00 75 975.8
20260509142949 73 284 3.0 7.0 0.00 0.00 0.00 75 975.9
20260509142448 73 277 3.0 7.0 0.00 0.00 0.00 75 976.0
20260509141948 72 279 3.0 8.0 0.00 0.00 0.00 76 976.1
20260509140948 71 304 4.0 8.0 0.00 0.00 0.00 77 975.8
20260509140449 70 281 3.0 8.0 0.00 0.00 0.00 78 975.8
20260509135949 70 287 3.0 6.0 0.00 0.00 0.00 79 975.9
20260509135448 69 310 3.0 6.0 0.00 0.00 0.00 80 975.9
20260509134439 69 308 3.0 7.0 0.00 0.00 0.00 80 975.9
20260509133933 69 296 3.0 7.0 0.00 0.00 0.00 81 976.0
20260509133428 68 298 3.0 7.0 0.00 0.00 0.00 82 976.0
20260509132922 68 297 2.0 5.0 0.00 0.00 0.00 83 975.8
20260509132415 67 294 3.0 5.0 0.00 0.00 0.00 84 975.9
20260509131910 67 292 3.0 7.0 0.00 0.00 0.00 85 976.0
20260509131410 66 291 3.0 8.0 0.00 0.00 0.00 86 976.0
20260509130911 65 293 3.0 8.0 0.00 0.00 0.00 86 976.0
20260509130410 65 288 4.0 8.0 0.00 0.00 0.00 87 976.0
20260509125908 64 286 4.0 8.0 0.00 0.00 0.00 87 976.0
20260509124909 64 299 3.0 5.0 0.00 0.00 0.00 88 975.9
20260509124410 64 297 4.0 5.0 0.00 0.00 0.00 88 976.0
20260509123402 63 317 3.0 5.0 0.00 0.00 0.00 89 975.8
20260509122902 63 319 3.0 5.0 0.00 0.00 0.00 89 975.8
20260509121900 63 0 2.0 5.0 0.00 0.00 0.00 89 975.6
20260509121400 63 344 1.0 3.0 0.00 0.00 0.00 89 975.6
20260509120900 63 345 0.0 0.0 0.00 0.00 0.00 89 975.5
20260509120400 62 344 0.0 0.0 0.00 0.00 0.00 89 975.4
20260509115359 63 344 0.0 0.0 0.00 0.00 0.00 89 975.3
20260509114902 62 344 0.0 0.0 0.00 0.00 0.00 89 975.3
20260509114356 63 345 0.0 0.0 0.00 0.00 0.00 89 975.2
20260509113850 62 346 0.0 0.0 0.00 0.00 0.00 88 975.0
20260509113343 63 346 0.0 0.0 0.00 0.00 0.00 88 974.9
20260509111825 64 348 0.0 0.0 0.00 0.00 0.00 88 974.5
20260509111319 64 348 0.0 0.0 0.00 0.00 0.00 88 974.5
20260509110813 64 348 0.0 0.0 0.00 0.00 0.00 88 974.5
20260509110307 64 348 0.0 0.0 0.00 0.00 0.00 87 974.4
20260509105256 64 347 0.0 0.0 0.00 0.00 0.00 87 974.3
20260509104750 65 347 0.0 0.0 0.00 0.00 0.00 87 974.3
20260509103737 65 348 0.0 0.0 0.00 0.00 0.00 87 974.3
20260509103231 65 348 0.0 0.0 0.00 0.00 0.00 87 974.3
20260509101714 65 348 1.0 5.0 0.00 0.00 0.00 87 974.2
20260509101208 66 347 2.0 6.0 0.00 0.00 0.00 87 974.2
20260509100702 66 348 3.0 6.0 0.00 0.00 0.00 87 974.1
20260509100156 66 42 3.0 6.0 0.00 0.00 0.00 87 974.0
20260509095143 66 61 3.0 7.0 0.00 0.00 0.00 87 973.9
20260509094638 66 53 3.0 6.0 0.00 0.00 0.00 87 973.8
20260509094131 66 46 3.0 6.0 0.00 0.00 0.00 87 973.8
20260509093625 67 40 4.0 7.0 0.00 0.00 0.00 87 973.8
20260509093119 67 42 4.0 9.0 0.00 0.00 0.00 87 973.7
20260509092614 67 38 5.0 9.0 0.00 0.00 0.00 87 973.7
20260509092108 67 355 5.0 10.0 0.00 0.00 0.00 87 973.7
20260509091055 67 355 5.0 12.0 0.00 0.00 0.00 87 973.7
20260509090550 67 355 5.0 11.0 0.00 0.00 0.00 86 973.7
20260509090044 68 40 7.0 11.0 0.00 0.00 0.00 86 973.8
20260509085537 68 38 5.0 9.0 0.00 0.00 0.00 86 973.7
20260509085034 68 40 4.0 9.0 0.00 0.00 0.00 86 974.0
20260509084533 68 341 3.0 8.0 0.00 0.00 0.00 86 974.0
20260509084034 69 17 2.0 7.0 0.00 0.00 0.00 86 973.9
20260509083532 69 24 3.0 6.0 0.00 0.00 0.00 86 973.9
20260509083032 69 25 4.0 8.0 0.00 0.00 0.00 85 974.1
20260509082531 69 13 4.0 8.0 0.00 0.00 0.00 85 974.1
20260509081032 69 31 3.0 10.0 0.00 0.00 0.00 85 974.1
20260509080532 69 59 3.0 10.0 0.00 0.00 0.00 84 974.1
20260509080032 69 22 4.0 10.0 0.00 0.00 0.00 84 974.0
20260509075532 70 46 5.0 10.0 0.00 0.00 0.00 83 973.9
20260509075032 70 9 6.0 14.0 0.00 0.00 0.00 83 973.7
20260509074531 70 35 8.0 16.0 0.00 0.00 0.00 82 973.7
20260509074032 70 9 9.0 16.0 0.00 0.00 0.00 81 973.4
20260509073531 71 9 10.0 16.0 0.00 0.00 0.00 80 973.1
20260509073031 72 15 11.0 18.0 0.00 0.00 0.00 78 972.9
20260509072526 73 355 12.0 19.0 0.00 0.00 0.00 76 972.8
20260509072025 74 326 16.0 26.0 0.00 0.00 0.00 73 972.7
20260509071526 75 10 15.0 26.0 0.00 0.00 0.00 69 972.4
20260509071026 78 355 10.0 23.0 0.00 0.00 0.00 65 971.8
20260509070526 79 0 10.0 18.0 0.00 0.00 0.00 47 972.1
20260509070025 76 181 9.0 19.0 0.00 0.00 0.00 55 971.5
20260509065526 73 172 9.0 19.0 0.00 0.00 0.00 66 972.0
20260509064529 71 0 7.0 19.0 0.00 0.00 0.00 83 972.6
20260509064029 71 191 3.0 16.0 0.00 0.00 0.00 83 973.3